Year,Month,Day,Hour,Minute,Value (Times are PST for temperature in C)
2015,09,12,14,05,23.30
2015,09,12,14,06,23.20
2015,09,12,14,07,23.30
2015,09,12,14,08,23.30
2015,09,12,14,09,23.30
2015,09,12,14,10,23.30
2015,09,12,14,11,23.40
2015,09,12,14,12,23.50
2015,09,12,14,13,23.60
2015,09,12,14,14,23.70
2015,09,12,14,15,23.80
2015,09,12,14,16,23.90
2015,09,12,14,17,23.90
2015,09,12,14,18,23.90
2015,09,12,14,19,23.90
2015,09,12,14,20,23.80
2015,09,12,14,21,23.80
2015,09,12,14,22,23.70
2015,09,12,14,23,23.70
2015,09,12,14,24,23.70
2015,09,12,14,25,23.70
2015,09,12,14,26,23.70
2015,09,12,14,27,23.70
2015,09,12,14,28,23.70
2015,09,12,14,29,23.70
2015,09,12,14,30,23.60
2015,09,12,14,31,23.60
2015,09,12,14,32,23.60
2015,09,12,14,33,23.70
2015,09,12,14,34,23.70
2015,09,12,14,35,23.70
2015,09,12,14,36,23.40
2015,09,12,14,37,23.30
2015,09,12,14,38,23.10
2015,09,12,14,39,23.10
2015,09,12,14,40,23.00
2015,09,12,14,41,22.90
2015,09,12,14,42,22.90
2015,09,12,14,43,23.00
2015,09,12,14,44,23.20
2015,09,12,14,45,23.20
2015,09,12,14,46,23.30
2015,09,12,14,47,23.30
2015,09,12,14,48,23.20
2015,09,12,14,49,23.20
2015,09,12,14,50,23.10
2015,09,12,14,51,23.10
2015,09,12,14,52,23.00
2015,09,12,14,53,22.90
2015,09,12,14,54,22.80
2015,09,12,14,55,22.60
2015,09,12,14,56,22.50
2015,09,12,14,57,22.30
2015,09,12,14,58,22.20
2015,09,12,14,59,22.20
2015,09,12,15,00,22.20
2015,09,12,15,01,22.00
2015,09,12,15,02,22.00
2015,09,12,15,03,22.00
2015,09,12,15,04,22.10
2015,09,12,15,05,22.10
2015,09,12,15,06,21.90
2015,09,12,15,07,21.80
2015,09,12,15,08,21.70
2015,09,12,15,09,21.70
2015,09,12,15,10,21.70
2015,09,12,15,11,21.70
2015,09,12,15,12,21.70
2015,09,12,15,13,21.50
2015,09,12,15,14,21.40
2015,09,12,15,15,21.30
2015,09,12,15,16,21.30
2015,09,12,15,17,21.30
2015,09,12,15,18,21.20
2015,09,12,15,19,21.00
2015,09,12,15,20,21.00
2015,09,12,15,21,21.00
2015,09,12,15,22,21.00
2015,09,12,15,23,21.00
2015,09,12,15,24,21.00
2015,09,12,15,25,21.00
2015,09,12,15,26,21.10
2015,09,12,15,27,21.10
2015,09,12,15,28,21.20
2015,09,12,15,29,21.20
2015,09,12,15,30,21.20
2015,09,12,15,31,21.20
2015,09,12,15,32,21.10
2015,09,12,15,33,21.10
2015,09,12,15,34,21.10
2015,09,12,15,35,21.10
2015,09,12,15,36,21.30
2015,09,12,15,37,21.30
2015,09,12,15,38,21.30
2015,09,12,15,39,21.30
2015,09,12,15,40,21.40
2015,09,12,15,41,21.40
2015,09,12,15,42,21.40
2015,09,12,15,43,21.40
2015,09,12,15,44,21.40
2015,09,12,15,45,21.30
2015,09,12,15,46,21.30
2015,09,12,15,47,21.30
2015,09,12,15,48,21.20
2015,09,12,15,49,21.20
2015,09,12,15,50,21.20
2015,09,12,15,51,21.30
2015,09,12,15,52,21.30
2015,09,12,15,53,21.30
2015,09,12,15,54,21.30
2015,09,12,15,55,21.40
2015,09,12,15,56,21.60
2015,09,12,15,57,21.60
2015,09,12,15,58,21.60
2015,09,12,15,59,21.60
2015,09,12,16,00,21.70
2015,09,12,16,01,21.70
2015,09,12,16,02,21.70
2015,09,12,16,03,21.70
2015,09,12,16,04,21.70
2015,09,12,16,05,21.70
2015,09,12,16,06,21.70
2015,09,12,16,07,21.70
2015,09,12,16,08,21.70
2015,09,12,16,09,21.70
2015,09,12,16,10,21.70
2015,09,12,16,11,21.90
2015,09,12,16,12,21.80
2015,09,12,16,13,21.80
2015,09,12,16,14,21.70
2015,09,12,16,15,21.70
2015,09,12,16,16,21.70
2015,09,12,16,17,21.60
2015,09,12,16,18,21.60
2015,09,12,16,19,21.70
2015,09,12,16,20,21.80
2015,09,12,16,21,21.80
2015,09,12,16,22,21.90
2015,09,12,16,23,21.90
2015,09,12,16,24,22.00
2015,09,12,16,25,22.10
2015,09,12,16,26,22.10
2015,09,12,16,27,22.00
2015,09,12,16,28,22.00
2015,09,12,16,29,21.90
2015,09,12,16,30,21.80
2015,09,12,16,31,21.70
2015,09,12,16,32,21.80
2015,09,12,16,33,21.90
2015,09,12,16,34,22.00
2015,09,12,16,35,22.00
2015,09,12,16,36,22.00
2015,09,12,16,37,22.00
2015,09,12,16,38,21.90
2015,09,12,16,39,22.00
2015,09,12,16,40,22.00
2015,09,12,16,41,22.00
2015,09,12,16,42,22.00
2015,09,12,16,43,22.00
2015,09,12,16,44,22.00
2015,09,12,16,45,22.00
2015,09,12,16,46,22.00
2015,09,12,16,47,22.00
2015,09,12,16,48,22.00
2015,09,12,16,49,22.00
2015,09,12,16,50,22.00
2015,09,12,16,51,22.00
2015,09,12,16,52,22.00
